星链-36363(STARLINK-36363)

导读

STARLINK-36363是美国SpaceX星链星座的成员卫星,于2026年2月21日发射升空。星链星座旨在构建全球卫星互联网,为偏远地区、海上和航空等场景提供高速宽带服务。该卫星延续了星链星座模块化设计思路,将融入星座组网,进一步提升全球覆盖能力与网络服务容量。

Basic Information
目录编号:
67890
目录名称:
STARLINK-36363
国际标识:
2026-035M
轨道中心:
EARTH
卫星名称:
星链-36363
卫星全名:
星链-36363(STARLINK-36363)
卫星状态:
在轨 (已飞行196 天)
发射日期:
2026-02-21 UTC
国别 :
美国 (US)
星等 :
--
Orbit Information
数据来源 国际轨道数据
星历时间: 2026-09-05T14:06:35+0800
8小时前
查看轨道信息
半长轴: 6843.685km
偏心率: 0.0001286
轨道倾角: 97.282°
近地点辐角 92.776°
升交点赤经 180.273°
平近点角 267.363°
近地点: 464.667km
远地点: 466.429km
周期: 93.906分钟
每日圈数: 15.334436
Detailed Information
固有亮度:
5
最大亮度:
2.5
卫星平台:
Starlink V1.0
覆盖范围:
全球
运营商:
太空探索技术公司
运营商所在国:
美国
制造商(研发单位):
太空探索技术公司
制造商所在国:
美国
使用方式:
暂无
Satellite Introduction
Starlink 计划是 SpaceX 推出的全球卫星互联网项目,通过发射低轨道卫星,为全球尤其是偏远地区提供高速、低延迟的互联网服务。自 2019 年起,Starlink 已部署数千颗卫星,旨在缩小全球数字鸿沟,推动互联网普及。该项目还为军事、航空等行业提供通信支持,带来广泛经济效益。
2D Orbit Map
3D Orbit Map
Orbit Altitude Analysis Chart
Orbit Inclination Analysis Chart
Orbit Comprehensive Analysis Chart
View Comprehensive Chart
Conjunction Data List
Event ID Objects TCA Miss Dist (km) Collision Risk Probability Collision Risk Index (CRI) Action
CDM_260905-142603-875906-789021
2026-09-05T
14:26:20+0000
1.800 km
极远距离
3.225317E-6 低风险 0.45
CDM_260906-053506-035206-789021
STRIX-4 (60352)
2026-09-06T
05:35:38+0000
2.428 km
极远距离
1.187079E-6 低风险 0.36
CDM_260908-034405-112406-789021
2026-09-08T
03:44:23+0000
2.719 km
极远距离
9.052594E-7 极低风险 0.34